Location: Irma
(52.9170°N, 111.2330°W)
Time: 05:50:01
(UTC-06:00)

Cosmos 1633 Rocket - Visible Passes

Search period start: 24 May 2016 00:00
Search period end: 03 June 2016 00:00
Orbit: 609 x 623 km, 82.5° (Epoch: 23 May)

Date Brightness Start Highest point End Pass type
(mag) Time Alt. Az. Time Alt. Az. Time Alt. Az.
24 May 3.3 03:22:00 13° S 03:25:55 67° E 03:30:20 10° NNE visible
25 May 5.5 02:02:30 10° ESE 02:05:05 15° E 02:07:41 10° NE visible
25 May 3.1 03:38:24 13° SSW 03:42:18 75° WNW 03:46:46 10° N visible
26 May 4.9 02:17:42 10° SE 02:21:13 24° E 02:24:49 10° NNE visible
26 May 3.6 03:54:47 12° SW 03:58:47 46° WNW 04:03:05 10° N visible
27 May 4.1 02:34:04 14° SSE 02:37:26 39° E 02:41:34 10° NNE visible
27 May 4.3 04:11:28 10° SW 04:15:20 29° WNW 04:19:15 10° N visible
28 May 3.3 02:50:26 17° S 02:53:43 64° E 02:58:08 10° NNE visible
29 May 5.4 01:30:25 10° ESE 01:32:54 15° E 01:35:24 10° NE visible
29 May 3.1 03:06:46 17° SSW 03:10:07 78° WNW 03:14:34 10° N visible
30 May 4.8 01:46:01 12° SE 01:49:01 24° E 01:52:34 10° NE visible
30 May 3.6 03:23:06 15° SW 03:26:34 47° WNW 03:30:53 10° N visible
31 May 4.1 02:02:20 17° SSE 02:05:14 37° E 02:09:20 10° NNE visible
31 May 4.3 03:39:25 11° SW 03:43:07 30° WNW 03:47:03 10° N visible
01 Jun 3.3 02:18:38 21° S 02:21:31 62° E 02:25:55 10° NNE visible
01 Jun 4.9 03:56:30 10° WSW 03:59:46 20° WNW 04:03:02 10° NNW visible
02 Jun 5.4 00:58:20 10° ESE 01:00:43 14° E 01:03:07 10° NE visible
02 Jun 3.1 02:34:56 21° SSW 02:37:54 80° WNW 02:42:22 10° N visible
02 Jun 5.3 04:14:24 10° W 04:16:30 13° WNW 04:18:37 10° NNW visible
